STARLINK-30384, 57774

Orbit data source: Space-Track

STARLINK-30384, 57774 is a payload satellite in LEO that was launched on Mon, 04 Sep 2023 UTC via an FALCON 9 launch vehicle from the Air Force Eastern Test Range (AFETR). Payload-class satellites include a variety of spacecraft equipped with specific instruments for various scientific and technological missions. These include communications satellites like Starlink; space stations such as the ISS; scientific satellites like the Hubble; Earth observation satellites from companies like Planet Labs, Umbra, and HawkEye 360; GPS; miniature CubeSats for education and research; and military/defense satellites.

Loading next visibility...
Identifier
57774, 2023-134D
Orbit
LEO
Last TLE update
12 hours ago
Origin
Manufacturer
SpaceX/Seattle
Mission
Operational Commercial Communications
Bus & Motor
STARLINK V2M, Unknown motor
Mass
730 kg wet, ~700 kg dry
Launch date (UTC)
2023-09-04 (2 years ago)
Launch vehicle
FALCON 9
Launch site
Air Force Eastern Test Range (AFETR)
Object type
Payload
Rocket body
Debris
Shape & HBR
Box + 2 Pan, 29 m
Radar Cross Section
33.884 m², Large (>1 m²)

Expand to show TLE details & history

TLE from 12 hours ago
0 STARLINK-30384
1 57774U 23134D   25150.86154819  .00000100  00000-0  22454-4 0  9990
2 57774  43.0042 294.5669 0001340 267.3781  92.6908 15.02528356 96925
Epoch: 2025-05-30T20:40Z
TLE epoch observation values (Epoch: 2025-05-30T20:40:37.763Z)
Latitude
-0.00002°
Longitude
95.79932°
Altitude
558.925 km
Speed
7.584 km/s
True Right ascension
19h 38m 16s
True Declination
0° 00' 00"
Sunlit
Object was in full shadow at epoch
Visualization orbit readout
Latitude
-5.15215°
Longitude
-81.40088°
Altitude
559.581 km
Speed
7.583 km/s
Apparent Right ascension
07h 11m 00s
Apparent Declination
-22° 03' 35"
Sunlit
Object is in daylight
Visualization observer readout
Local Sidereal Time
18:16:29
Azimuth
323.011° NNW
Elevation
-68.72°
Doppler factor
1
Orbital elements
Apogee altitude
561.956 km
Perigee altitude
560.096 km
Semi-major axis
6,939.163 km
Eccentricity
0.00013
Inclination
43.0042°
RAAN
294.5669°
Arg. of periapsis
267.3781°
True anomaly
Unknown
Mean anomaly
92.6908°
Eccentric anomaly
Unknown
Mean motion
3.75476 °/min
Orbital period
95.88 mins
BSTAR
0.000022454
Loading maneuver chart data...
Loading SW <> Apogee altitude chart data...
Loading historical data...
Loading historical data...
Loading historical data...
Loading historical data...
Loading historical data...
Loading historical data...
Loading historical data...

STARLINK-30384 Visibility forecast

Observer location: undefined°, undefined°

Span
Click to sort rows by Start time (UTC) header in descending order
Start Az.
Max El. time (UTC)
Max El. Az.
Max El.
End time (UTC)
End Az.
7 mins2025-05-31 12:49:33.379Z220.045° SW2025-05-31 12:53:33.379Z142.803° SSE33.116°2025-05-31 12:56:33.379Z84.462° E
6 mins2025-05-31 14:31:33.379Z268.215° W2025-05-31 14:33:33.379Z308.49° NW42.017°2025-05-31 14:37:33.379Z70.49° E
6 mins2025-05-31 16:12:33.379Z294.092° NW2025-05-31 16:14:33.379Z342.653° N39.482°2025-05-31 16:18:33.379Z84.119° E
7 mins2025-05-31 17:52:33.379Z283.577° WNW2025-05-31 17:55:33.379Z216.175° SW42.76°2025-05-31 17:59:33.379Z121.282° SE
|